This is the latest recevied weather packets stored in our database for station/object K7LDN-13. If no packets are shown the sender has not sent any weather packets the latest 10 day(s).
| Time | Temp. | Humidity | Pressure | Rain* | Wind** | Luminosity | Snow |
|---|---|---|---|---|---|---|---|
| 1777340232 | 5.56° C | 85% | 1016.9 hPa | 0 mm | - | 20 W/m² | - |
| 1777339929 | 5.56° C | 85% | 1016.5 hPa | 0 mm | - | 32 W/m² | - |
| 1777339627 | 5.56° C | 85% | 1016.9 hPa | 0 mm | - | 24 W/m² | - |
| 1777339324 | 5° C | 85% | 1016.6 hPa | 0 mm | - | 22 W/m² | - |
| 1777339022 | 5° C | 86% | 1016.7 hPa | 0 mm | - | 23 W/m² | - |
| 1777338719 | 5° C | 86% | 1016.7 hPa | 0 mm | - | 26 W/m² | - |
| 1777338416 | 5° C | 87% | 1016.7 hPa | 0 mm | - | 36 W/m² | - |
| 1777338113 | 5° C | 87% | 1017 hPa | 0 mm | - | 45 W/m² | - |
| 1777337809 | 5° C | 87% | 1017 hPa | 0 mm | - | 27 W/m² | - |
| 1777337506 | 5° C | 87% | 1016.7 hPa | 0 mm | - | 27 W/m² | - |
| 1777337203 | 5° C | 87% | 1016.7 hPa | 0 mm | - | 41 W/m² | - |
| 1777336901 | 5° C | 87% | 1016.7 hPa | 0 mm | - | 61 W/m² | - |
| 1777336600 | 5° C | 87% | 1016.9 hPa | 0 mm | - | 78 W/m² | - |
| 1777336297 | 5° C | 86% | 1017.1 hPa | 0 mm | - | 73 W/m² | - |
| 1777335994 | 5° C | 86% | 1017 hPa | 0 mm | - | 84 W/m² | - |
| 1777335691 | 5° C | 86% | 1016.9 hPa | 0 mm | - | 104 W/m² | - |
| 1777335388 | 5° C | 86% | 1017 hPa | 0 mm | - | 124 W/m² | - |
| 1777335086 | 5° C | 86% | 1017.1 hPa | 0 mm | - | 126 W/m² | - |
| 1777334783 | 5° C | 86% | 1016.9 hPa | 0 mm | - | 126 W/m² | - |
| 1777334480 | 5.56° C | 87% | 1017 hPa | 0 mm | - | 174 W/m² | - |
| 1777334177 | 5° C | 90% | 1016.7 hPa | 0 mm | - | 225 W/m² | - |
| 1777333876 | 5.56° C | 91% | 1016.7 hPa | 0 mm | - | 371 W/m² | - |
| 1777333574 | 5° C | 92% | 1016.6 hPa | 0 mm | - | 228 W/m² | - |
| 1777333269 | 4.44° C | 93% | 1016.9 hPa | 0 mm | - | 276 W/m² | - |
| 1777332968 | 3.89° C | 92% | 1016.7 hPa | 0 mm | - | 311 W/m² | - |
* Rain latest hour (hover to see other rain measurements)
** Current wind speed in m/s (hover to see current wind gust speed)